User: anonymous   Login
Location: Caltech
(34.1382°N, 118.1253°W)
Time: 08:00:52
(UTC-07:00)
Language:

COSMOS 2428 - Orbit

View from above orbital plane
View from above orbital plane
View from above satellite
View from above satellite

Ground track
Ground track

The orbit data is extracted from the following two-line orbital elements,

1 31792U 07029A   17147.94644359 +.00000117 +00000-0 +89740-4 0  9995
2 31792 070.9148 094.6012 0010305 290.7686 069.2330 14.12264921511127
Epoch (UTC): 27 May 2017 22:42:52
Eccentricity: 0.0010305
inclination: 70.9148°
perigee height: 844 km
apogee height: 859 km
right ascension of ascending node: 94.6012°
argument of perigee: 290.7686°
revolutions per day: 14.12264921
mean anomaly at epoch: 69.2330°
orbit number at epoch: 51112

The dashed part of the orbit path shows where the satellite is in the earth's shadow,  

DLR